Terminal Aerodrome Forecast
Issued by NWS Denver/Boulder, CO

Home | Current Version | Previous Version | Text Only | Print | Product List | Glossary On
Versions: 1 2 3 4 5 6 7 8 9 10 11 12 13 14 15 16 17 18 19 20 21 22 23 24 25 26 27 28 29 30 31 32 33 34 35 36 37 38 39
000
FTUS45 KBOU 221509 AAB
TAFDEN
TAF AMD
KDEN 221509Z 2215/2318 24011KT P6SM FEW120 BKN220
     FM221600 32009KT P6SM SCT120 BKN220
     FM221800 03013G21KT P6SM SCT090 BKN200
     FM222200 06015G22KT P6SM SCT090 BKN200
      TEMPO 2222/2302 VRB15G30KT -TSRA BKN060CB
     FM230300 08011KT P6SM VCSH SCT060 BKN090
     FM230600 05009KT P6SM VCSH SCT025 OVC060
      TEMPO 2306/2308 BKN025
     FM230800 03011KT P6SM VCSH BKN008 OVC020
     FM231700 10009KT P6SM BKN015 BKN060=

USA.gov is the U.S. government's official web portal to all federal, state and local government web resources and services.